Flag for Norway Weather past 2 weeks in Florø, Norway

Now
61 °F

Partly cloudy.


Feels Like: 61 °F
Forecast: 61 / 71 °F
Wind: 12 mph from Southeast

Location: Floro

Current Time: Aug 2, 2014 at 1:12:42 AM

Latest Report: Aug 1, 2014 at 11:20 PM


Visibility: N/A

Pressure: 29.80 "Hg

Humidity: 77%

Dew point: 54 °F

Location of FlorøLocation

Historic Weather in Florø — Graph

°F

Florø temperature yesterday

Maximum temperature yesterday: 63 °F (at 3:20 PM)
Minimum temperature yesterday: 54 °F (at 6:20 AM)
Average temperature yesterday: 59 °F

Past Weeks' High & Low Weather Summary

 TemperatureHumidityPressure
High81 °F (Jul 20, 1:50 PM)100% (Jul 23, 5:50 AM)30.36 "Hg (Jul 23, 5:50 AM)
Low52 °F (Jul 27, 10:50 AM)32% (Jul 20, 2:50 PM)29.56 "Hg (Jul 30, 10:20 PM)
Average66 °F75%30.00 "Hg
* Reported Jul 17 11:20 PM — Aug 1 11:20 PM, Florø, Weather by CustomWeather, © 2014

Note: Actual official high and low records may vary slightly from our data, if they occured in-between our weather recording intervals... More about our weather records

Advertising

Florø weather history for previous 24 hours

 ConditionsComfort  
Time TempWeatherWind HumidityBarometerVisibility
11:20 PM
Aug 1
61 °FBroken clouds.12 mph77%29.80 "HgN/A
10:50 PM61 °FBroken clouds.12 mph83%29.80 "HgN/A
10:20 PM59 °FSprinkles. Broken clouds.9 mph82%29.80 "HgN/A
9:50 PM61 °FScattered showers. Partly sunny.6 mph77%29.80 "HgN/A
9:20 PM61 °FPartly sunny.5 mph72%29.80 "HgN/A
8:50 PM61 °FPartly sunny.5 mph72%29.80 "HgN/A
8:20 PM61 °FPartly sunny.2 mph72%29.80 "HgN/A
7:50 PM61 °FBroken clouds.1 mph68%29.80 "HgN/A
7:20 PM61 °FScattered clouds.1 mph68%29.80 "HgN/A
6:50 PM63 °FScattered clouds.3 mph68%29.80 "HgN/A
6:20 PM63 °FScattered clouds.5 mph64%29.80 "HgN/A
5:50 PM63 °FScattered clouds.3 mph64%29.80 "HgN/A
4:50 PM63 °FScattered clouds.3 mph64%29.80 "HgN/A
4:20 PM63 °FScattered clouds.5 mph68%29.80 "HgN/A
3:50 PM61 °FScattered clouds.5 mph68%29.80 "HgN/A
3:20 PM63 °FScattered clouds.6 mph64%29.80 "HgN/A
2:50 PM61 °FScattered clouds.3 mph72%29.80 "HgN/A
2:20 PM59 °FScattered clouds.7 mph82%29.80 "HgN/A
1:50 PM59 °FScattered showers. Scattered clouds.5 mph77%29.80 "HgN/A
12:50 PM59 °FScattered showers. Scattered clouds.5 mph77%29.80 "HgN/A
12:20 PM61 °FScattered showers. Scattered clouds.8 mph72%29.77 "HgN/A
11:50 AM59 °FScattered showers. Scattered clouds.7 mph72%29.77 "HgN/A
11:20 AM59 °FScattered clouds.7 mph82%29.77 "HgN/A
10:50 AM57 °FScattered showers. Partly sunny.8 mph82%29.77 "HgN/A
10:20 AM57 °FBroken clouds.8 mph82%29.74 "HgN/A
9:50 AM55 °FBroken clouds.9 mph88%29.74 "HgN/A
9:20 AM55 °FScattered showers. Scattered clouds.9 mph88%29.74 "HgN/A
8:20 AM55 °FScattered showers. Broken clouds.7 mph94%29.71 "HgN/A
7:50 AM55 °FScattered showers. Broken clouds.5 mph88%29.71 "HgN/A
7:20 AM55 °FScattered showers. Broken clouds.3 mph88%29.71 "HgN/A
6:50 AM54 °FScattered showers. Broken clouds.1 mph94%29.71 "HgN/A
6:20 AM54 °FScattered showers. Broken clouds.2 mph88%29.71 "HgN/A
5:50 AM55 °FSprinkles. Partly cloudy.6 mph82%29.71 "HgN/A
Weather by CustomWeather, © 2014

See weather overviewHow to use our weather pages